Weather observations for the past three days for
Kivalina, Kivalina Airport
Metric (Imperial)
Date Time (akdt) Wind (kph) Vis. (km) Weather Sky Cond. Temperature (ºC) Relative Humidity Wind Chill (°C) Heat Index (°C) Pressure Precipitation (cm)
Air Dwpt 6 hour altimeter (cm) sea level (mb) 1 hr 3 hr 6 hr
Max. Min.
21 06:53 S 6 16.09 Fair CLR 6.1 4.4 89% 76.1 1014.4
21 05:53 SW 6 16.09 Fair CLR 3.3 2.2 93% 76.1 1014.4
21 04:53 E 6 16.09 Fair CLR 5.6 4.4 92% 76.1 1014.5
21 03:53 NE 9 16.09 Fair CLR 5.6 3.9 6.7 2.8 89% 4 76.1 1014.6
21 02:53 E 6 16.09 Fair CLR 6.7 3.9 83% 76.1 1014.4
21 01:53 Calm 16.09 Fair CLR 5 2.2 82% 76.07 1014.3
20 22:53 W 22 12.87 Fair CLR 4.4 1.7 83% 0 76.1 1014.4
20 21:53 NW 19 14.48 Mostly Cloudy BKN100 5.6 2.2 6.7 5 79% 2 76.12 1014.8
20 19:53 W 26 16.09 Fair CLR 6.1 2.2 76% 2 76.17 1015.5
20 18:53 W 28 16.09 Fair CLR 5 2.2 82% 1 76.23 1016.1
20 17:53 W 26 16.09 Overcast OVC085 5.6 2.2 79% 2 76.23 1016.2
20 16:53 NW 24 16.09 Partly Cloudy SCT110 5.6 2.2 79% 2 76.23 1016.4
20 15:53 W 20 16.09 A Few Clouds FEW090 6.7 2.8 7.2 3.9 76% 3 76.28 1016.9
20 14:53 W 24 16.09 Fair CLR 6.7 2.8 76% 3 76.3 1017.1
20 13:53 W 19 16.09 Fair CLR 6.7 2.8 76% 4 76.33 1017.7
20 12:53 W 15 16.09 Fair CLR 5.6 2.8 82% 3 76.35 1017.8
20 11:53 W 9 16.09 Fair CLR 5.6 2.8 82% 4 76.35 1017.9
20 10:53 W 13 16.09 Fair CLR 5 2.2 82% 2 76.35 1018.0
20 09:53 W 11 16.09 Fair CLR 4.4 2.2 7.2 2.8 86% 2 76.38 1018.2
20 07:53 Calm 16.09 Fair CLR 5 2.8 86% 76.4 1018.4
20 06:53 Calm 16.09 Mostly Cloudy BKN080 3.3 1.7 89% 76.4 1018.5
20 05:53 NE 6 16.09 Fair CLR 3.9 2.8 93% 76.4 1018.4
20 04:53 NW 11 16.09 Fair CLR 2.8 1.1 89% 0 76.38 1018.4
20 03:53 NW 11 16.09 Fair CLR 2.8 1.7 5.6 2.8 93% 0 76.4 1018.5
20 02:53 NW 13 16.09 Fair CLR 2.8 1.7 93% -0 76.4 1018.4
20 01:53 W 13 16.09 Fair CLR 3.3 1.7 89% 0 76.4 1018.5
20 00:53 W 13 16.09 A Few Clouds FEW055 3.3 1.7 89% 0 76.4 1018.4
19 23:53 W 11 16.09 Fair CLR 3.9 2.2 89% 1 76.38 1018.1
19 22:53 W 13 16.09 Fair CLR 4.4 2.8 89% 2 76.38 1018.2
19 21:53 NW 13 16.09 A Few Clouds FEW070 3.9 2.2 5 2.2 89% 1 76.35 1018.0
19 20:53 W 15 16.09 Partly Cloudy SCT070 SCT080 3.9 2.2 89% 1 76.33 1017.7
19 19:53 W 11 16.09 Mostly Cloudy FEW001 BKN110 3.9 2.2 89% 1 76.33 1017.6
19 18:53 W 13 11.27 Overcast OVC001 4.4 2.2 86% 2 76.3 1017.4
19 12:53 W 7 0.40 Fog VV003 2.8 2.8 100% 1 76.25 1016.5
19 11:53 SW 9 1.61 Fog/Mist VV005 2.2 1.7 97% -0 76.23 1016.1
19 10:53 SW 6 2.41 Fog/Mist OVC004 3.3 2.8 97% 76.17 1015.6
19 09:53 W 7 1.21 Fog/Mist VV005 1.7 1.1 3.9 1.1 96% -0 76.15 1015.1
19 08:53 NW 9 0.80 Fog VV004 2.2 1.1 93% -0 76.1 1014.5
19 07:53 W 9 6.44 Fog/Mist OVC004 1.7 0.6 93% -1 76.07 1014.1
19 06:53 NW 7 16.09 Overcast OVC006 2.2 1.7 97% 0 76.02 1013.5
19 05:53 NW 15 16.09 Overcast OVC006 1.1 0.6 97% -3 76.02 1013.4
19 04:53 W 17 16.09 Overcast OVC007 1.7 0.6 93% -2 76 1013.1
19 03:53 NW 17 16.09 Overcast OVC008 1.1 0.6 2.8 1.1 97% -3 75.95 1012.3
19 02:53 NW 13 16.09 Overcast FEW055 OVC070 1.1 0.6 97% -2 75.92 1012.3
19 01:53 NW 11 16.09 Overcast FEW043 OVC055 1.1 0.6 97% -2 75.9 1011.8
19 00:53 N 17 16.09 Overcast BKN014 OVC041 2.2 1.1 93% -2 75.87 1011.5
18 23:53 W 20 16.09 Overcast OVC018 1.7 0 89% -3 75.87 1011.4
18 22:53 W 19 16.09 Overcast OVC020 2.2 0.6 89% -2 75.82 1010.7
18 21:53 NW 15 16.09 Overcast FEW035 BKN095 OVC110 1.7 0 2.8 1.7 89% -2 75.79 1010.4
18 20:53 W 19 16.09 Overcast OVC027 2.2 0.6 89% -2 75.79 1010.6
18 19:53 W 19 16.09 Overcast OVC030 2.2 0 86% -2 75.77 1010.1
18 18:53 W 19 16.09 Overcast OVC033 2.2 0.6 89% -2 75.74 1009.9
18 12:53 NW 19 16.09 Mostly Cloudy FEW003 BKN043 BKN120 1.7 0 89% -2 75.77 1010.2
18 11:53 W 26 16.09 Overcast OVC110 1.7 0 89% -3 75.77 1010.2
18 10:53 W 22 16.09 Fair CLR 2.8 0 82% -2 75.79 1010.4
Date Time (akdt) Wind (kph) Vis. (km) Weather Sky Cond. Air Dwpt Max. Min. Relative Humidity Wind Chill (°C) Heat Index (°C) altimeter (cm) sea level (mb) 1 hr 3 hr 6 hr
6 hour
Temperature (ºC) Pressure Precipitation (cm)